Location: Cz?stochówka
(50.8142°N, 19.0915°E)
Time: 14:39:04
(UTC+00:00)

Cosmos 614 Rocket - Visible Passes

Search period start: 19 April 2026 00:00
Search period end: 29 April 2026 00:00
Orbit: 727 x 758 km, 74.1° (Epoch: 19 April)

Date Brightness Start Highest point End Pass type
(mag) Time Alt. Az. Time Alt. Az. Time Alt. Az.
19 Apr 4.6 19:14:46 10° NNW 19:19:48 53° WSW 19:24:46 10° S visible
20 Apr 4.0 18:29:57 10° NNW 18:35:09 85° ENE 18:40:16 10° SSE visible
20 Apr 6.4 20:12:54 10° WNW 20:15:55 16° W 20:18:55 10° SW visible
21 Apr 5.7 19:27:13 10° NW 19:31:36 29° W 19:35:56 10° SSW visible
22 Apr 4.7 18:42:06 10° NNW 18:47:07 52° WSW 18:52:03 10° S visible
23 Apr 6.5 19:40:18 10° WNW 19:43:13 15° W 19:46:08 10° SW visible
24 Apr 5.9 18:54:34 10° NW 18:58:54 28° W 19:03:11 10° SSW visible
26 Apr 6.6 19:07:41 10° WNW 19:10:31 15° W 19:13:20 10° SW visible
